Powrót do katalogu

DELTA 1 DEB

AktywnySSO
NORAD 12236·DEBRIS·🇺🇸 United States

Wystrzelony Mar 5, 1978 z Vandenberg Space Force Base

Loading…

Następne Przeloty (najbliższe 24 godziny)

TLE

ŚwieżeSource: Space-Track

Epoka: Sep 14, 2026, 01:18 UTC

1 12236U 78026CD  26257.05465605  .00000446  00000-0  33789-3 0  9997
2 12236  98.7596  97.5113 0212935  90.3516  59.1920 13.88358017291958

Śledź DELTA 1 DEB w czasie rzeczywistym z AllMySat

Download on the App Store